Weather History for Frenchville, ME

Change the Weather History Date:

Saturday, April 13, 2013

  Actual Average Record
Temperature  
Mean Temperature 30 °F 36 °F  
Max Temperature 39 °F 44 °F 55 °F (1998)
Min Temperature 21 °F 28 °F 21 °F (2013)
Degree Days  
Heating Degree Days 35    
Month to date heating degree days 445  
Since 1 July heating degree days 8068  
Cooling Degree Days 0    
Month to date cooling degree days 0  
Year to date cooling degree days 0  
Moisture  
Dew Point 30 °F    
Average Humidity 91    
Maximum Humidity 100    
Minimum Humidity 81    
Precipitation  
Precipitation 0.20 in 0.10 in 0.47 in (2001)
Month to date precipitation 0.36 1.19  
Year to date precipitation 3.52 5.24  
Sea Level Pressure  
Sea Level Pressure 29.88 in    
Wind  
Wind Speed 8 mph (East)    
Max Wind Speed 17 mph    
Max Gust Speed 22 mph    
Visibility 4 miles    
Events Snow    
T = Trace of Precipitation, MM = Missing Value Source: NWS Daily Summary

Daily Weather History Graph

Daily Weather History Graph

Search for Another Location

Airport:

Trip Planner

Search our weather history database for the weather conditions in past years. The results will help you decide how hot, cold, wet, or windy it might be!

Date:

Astronomy

Apr. 13, 2013 Rise Set
Actual Time 5:48 AM EDT 7:19 PM EDT
Civil Twilight 5:16 AM EDT 7:51 PM EDT
Nautical Twilight 4:37 AM EDT 8:30 PM EDT
Astronomical Twilight 3:55 AM EDT 9:13 PM EDT
Moon 7:26 AM EDT (4/13) 10:52 PM EDT (4/13)
Length of Visible Light 14h 35m
Length of Day
13h 31m
Waxing Crescent, 10% of the Moon is Illuminated
Apr 13
Waxing Crescent
Apr 18
First Quarter
Apr 25
Full
May 2
Last Quarter
May 9
New

Hourly Weather History & Observations

Time (EDT) Temp. Windchill Dew Point Humidity Pressure Visibility Wind Dir Wind Speed Gust Speed Precip Events Conditions
12:01 AM 30.2 °F 21.9 °F 28.4 °F 93% 29.99 in 2.0 mi ESE 9.2 mph - 0.00 in Snow Light Snow
12:07 AM 30.2 °F 22.6 °F 28.4 °F 93% 29.99 in 1.5 mi ESE 8.1 mph - 0.00 in Snow Light Snow
12:12 AM 30.2 °F 23.4 °F 28.4 °F 93% 29.99 in 2.0 mi ESE 6.9 mph - 0.00 in Snow Light Snow
12:16 AM 30.2 °F 22.6 °F 28.4 °F 93% 29.99 in 3.0 mi ESE 8.1 mph - 0.00 in Snow Light Snow
12:41 AM 30.2 °F 23.4 °F 28.4 °F 93% 29.98 in 2.5 mi East 6.9 mph - 0.01 in Snow Light Snow
12:50 AM 30.2 °F 22.6 °F 28.4 °F 93% 29.98 in 1.5 mi ESE 8.1 mph - 0.01 in Snow Light Snow
12:53 AM 30.0 °F 22.4 °F 28.9 °F 96% 30.00 in 1.2 mi ESE 8.1 mph - 0.02 in Snow Light Snow
1:01 AM 30.2 °F 21.9 °F 28.4 °F 93% 29.97 in 1.8 mi East 9.2 mph - 0.00 in Snow Light Snow
1:05 AM 30.2 °F 21.9 °F 28.4 °F 93% 29.97 in 3.0 mi ESE 9.2 mph - 0.00 in Snow Light Snow
1:26 AM 30.2 °F 24.3 °F 28.4 °F 93% 29.96 in 2.0 mi ESE 5.8 mph - 0.00 in Snow Light Snow
1:36 AM 30.2 °F 22.6 °F 28.4 °F 93% 29.96 in 3.0 mi ESE 8.1 mph - 0.00 in Snow Light Snow
1:53 AM 30.0 °F 23.2 °F 28.0 °F 92% 29.99 in 8.0 mi ESE 6.9 mph - 0.00 in   Overcast
2:13 AM 30.2 °F 22.6 °F 28.4 °F 93% 29.94 in 5.0 mi ESE 8.1 mph - 0.00 in Snow Light Snow
2:42 AM 30.2 °F 22.6 °F 28.4 °F 93% 29.93 in 1.8 mi East 8.1 mph - 0.01 in Snow Light Snow
2:47 AM 30.2 °F 24.3 °F 28.4 °F 93% 29.93 in 1.2 mi East 5.8 mph - 0.01 in Snow Light Snow
2:53 AM 30.0 °F 23.2 °F 28.0 °F 92% 29.95 in 1.2 mi East 6.9 mph - 0.01 in Snow Light Snow
3:04 AM 30.2 °F 23.4 °F 28.4 °F 93% 29.92 in 1.5 mi East 6.9 mph - 0.01 in Snow Light Snow
3:09 AM 30.2 °F 22.6 °F 28.4 °F 93% 29.92 in 1.8 mi East 8.1 mph - 0.01 in Snow Light Snow
3:18 AM 30.2 °F 22.6 °F 28.4 °F 93% 29.91 in 2.5 mi East 8.1 mph - 0.01 in Snow Light Snow
3:25 AM 30.2 °F 23.4 °F 28.4 °F 93% 29.91 in 2.5 mi East 6.9 mph - 0.01 in Snow Light Snow
3:33 AM 30.2 °F 22.6 °F 28.4 °F 93% 29.91 in 3.0 mi East 8.1 mph - 0.01 in Snow Light Snow
3:53 AM 30.0 °F 23.2 °F 28.0 °F 92% 29.93 in 4.0 mi East 6.9 mph - 0.01 in Snow Light Snow
4:01 AM 30.2 °F 23.4 °F 28.4 °F 93% 29.90 in 2.5 mi East 6.9 mph - 0.00 in Snow Light Snow
4:06 AM 30.2 °F 22.6 °F 28.4 °F 93% 29.90 in 3.0 mi East 8.1 mph - 0.00 in Snow Light Snow
4:53 AM 30.0 °F 24.1 °F 28.0 °F 92% 29.91 in 7.0 mi East 5.8 mph - 0.01 in Snow Light Snow
5:53 AM 30.0 °F 22.4 °F 28.0 °F 92% 29.88 in 10.0 mi ENE 8.1 mph - N/A   Overcast
6:53 AM 30.0 °F 24.1 °F 28.0 °F 92% 29.90 in 3.0 mi East 5.8 mph - 0.00 in Snow Light Snow
7:00 AM 30.2 °F 23.4 °F 28.4 °F 93% 29.87 in 2.0 mi East 6.9 mph - 0.00 in Snow Light Snow
7:14 AM 30.2 °F 25.4 °F 28.4 °F 93% 29.87 in 1.8 mi East 4.6 mph - 0.00 in Snow Light Snow
7:17 AM 30.2 °F 24.3 °F 28.4 °F 93% 29.87 in 1.2 mi East 5.8 mph - 0.00 in Snow Light Snow
7:46 AM 30.2 °F 22.6 °F 28.4 °F 93% 29.85 in 1.8 mi ENE 8.1 mph - 0.00 in Snow Light Snow
7:53 AM 30.0 °F 22.4 °F 28.0 °F 92% 29.88 in 2.5 mi East 8.1 mph - 0.00 in Snow Light Snow
7:59 AM 30.2 °F 22.6 °F 28.4 °F 93% 29.85 in 4.0 mi East 8.1 mph - 0.01 in Snow Light Snow
8:28 AM 30.2 °F 23.4 °F 28.4 °F 93% 29.84 in 2.5 mi ENE 6.9 mph - 0.01 in Snow Light Snow
8:32 AM 30.2 °F 24.3 °F 28.4 °F 93% 29.84 in 1.5 mi ENE 5.8 mph - 0.01 in Snow Light Snow
8:40 AM 30.2 °F 23.4 °F 28.4 °F 93% 29.84 in 1.0 mi ENE 6.9 mph - 0.02 in Snow Light Snow
8:53 AM 30.0 °F 22.4 °F 28.0 °F 92% 29.86 in 0.8 mi ENE 8.1 mph - 0.02 in Snow Light Snow
9:19 AM 30.2 °F 24.3 °F 28.4 °F 93% 29.83 in 1.0 mi ENE 5.8 mph - 0.01 in Snow Light Snow
9:30 AM 30.2 °F 23.4 °F 28.4 °F 93% 29.83 in 0.8 mi NE 6.9 mph - 0.01 in Snow Light Snow
9:39 AM 30.2 °F 22.6 °F 28.4 °F 93% 29.83 in 1.0 mi ENE 8.1 mph - 0.01 in Snow Light Snow
9:47 AM 30.2 °F 24.3 °F 28.4 °F 93% 29.84 in 1.8 mi NE 5.8 mph - 0.01 in Snow Light Snow
9:51 AM 30.2 °F 23.4 °F 28.4 °F 93% 29.84 in 3.0 mi NE 6.9 mph - 0.01 in Snow Light Snow
9:53 AM 30.9 °F 23.5 °F 28.0 °F 89% 29.87 in 4.0 mi ENE 8.1 mph - 0.01 in Snow Light Snow
10:03 AM 30.2 °F 21.9 °F 28.4 °F 93% 29.84 in 7.0 mi ENE 9.2 mph - 0.00 in Snow Light Snow
10:53 AM 32.0 °F 25.6 °F 28.0 °F 85% 29.87 in 10.0 mi ENE 6.9 mph - 0.00 in Snow Light Snow
11:09 AM 32.0 °F 26.4 °F 28.4 °F 87% 29.84 in 7.0 mi ENE 5.8 mph - 0.00 in Snow Light Snow
11:24 AM 32.0 °F 25.6 °F 28.4 °F 87% 29.83 in 4.0 mi East 6.9 mph - 0.00 in Snow Light Snow
11:53 AM 33.1 °F 25.5 °F 28.9 °F 85% 29.86 in 4.0 mi ENE 9.2 mph - 0.01 in Snow Light Snow
12:22 PM 33.8 °F 26.4 °F 28.4 °F 81% 29.82 in 2.5 mi NE 9.2 mph - 0.00 in Snow Light Snow
12:27 PM 33.8 °F 25.8 °F 28.4 °F 81% 29.82 in 3.0 mi East 10.4 mph - 0.00 in Snow Light Snow
12:53 PM 34.0 °F 28.0 °F 28.9 °F 82% 29.85 in 9.0 mi ENE 6.9 mph - 0.00 in   Overcast
1:00 PM 33.8 °F 27.0 °F 28.4 °F 81% 29.82 in 10.0 mi ENE 8.1 mph - N/A   Overcast
1:23 PM 33.8 °F 27.7 °F 30.2 °F 87% 29.82 in 6.0 mi NE 6.9 mph - 0.00 in Snow Light Snow
1:53 PM 35.1 °F 30.1 °F 30.9 °F 85% 29.84 in 3.0 mi ENE 5.8 mph - 0.00 in Snow Light Snow
2:01 PM 35.6 °F 30.7 °F 30.2 °F 81% 29.82 in 9.0 mi ENE 5.8 mph - 0.00 in   Overcast
2:40 PM 33.8 °F 30.8 °F 30.2 °F 87% 29.82 in 2.5 mi ENE 3.5 mph - 0.00 in Snow Light Snow
2:53 PM 35.1 °F 29.3 °F 30.9 °F 85% 29.84 in 9.0 mi ENE 6.9 mph - 0.00 in Snow Light Snow
3:03 PM 35.6 °F 29.9 °F 30.2 °F 81% 29.81 in 8.0 mi ENE 6.9 mph - 0.00 in Snow Light Snow
3:25 PM 35.6 °F 31.7 °F 32.0 °F 87% 29.82 in 8.0 mi ENE 4.6 mph - 0.00 in   Overcast
3:31 PM 35.6 °F 31.7 °F 30.2 °F 81% 29.81 in 10.0 mi ENE 4.6 mph - 0.00 in   Overcast
3:43 PM 35.6 °F 30.7 °F 30.2 °F 81% 29.81 in 10.0 mi ENE 5.8 mph - 0.00 in   Overcast
3:53 PM 36.0 °F 32.1 °F 30.9 °F 82% 29.84 in 10.0 mi ENE 4.6 mph - 0.00 in   Overcast
4:05 PM 35.6 °F 29.9 °F 30.2 °F 81% 29.81 in 10.0 mi NE 6.9 mph - N/A   Overcast
4:19 PM 35.6 °F 31.7 °F 30.2 °F 81% 29.81 in 7.0 mi ENE 4.6 mph - 0.00 in Snow Light Snow
4:53 PM 35.1 °F 29.3 °F 32.0 °F 89% 29.84 in 8.0 mi ENE 6.9 mph - 0.00 in Snow Light Snow
5:17 PM 35.6 °F 29.9 °F 32.0 °F 87% 29.81 in 10.0 mi ENE 6.9 mph - 0.00 in   Overcast
5:31 PM 35.6 °F 28.0 °F 30.2 °F 81% 29.81 in 10.0 mi ENE 10.4 mph - 0.00 in   Overcast
5:53 PM 35.1 °F 28.6 °F 32.0 °F 89% 29.84 in 10.0 mi ENE 8.1 mph - 0.00 in   Overcast
6:26 PM 35.6 °F 30.7 °F 32.0 °F 87% 29.82 in 10.0 mi ENE 5.8 mph - N/A   Overcast
6:53 PM 35.1 °F 29.3 °F 32.0 °F 89% 29.84 in 10.0 mi ENE 6.9 mph - N/A   Overcast
7:39 PM 33.8 °F 27.0 °F 30.2 °F 87% 29.84 in 10.0 mi East 8.1 mph - N/A   Overcast
7:53 PM 33.8 °F 27.0 °F 32.0 °F 93% 29.85 in 10.0 mi East 8.1 mph - N/A   Overcast
8:18 PM 33.8 °F 29.6 °F 30.2 °F 87% 29.86 in 2.5 mi East 4.6 mph - 0.00 in Snow Light Snow
8:25 PM 33.8 °F 29.6 °F 32.0 °F 93% 29.86 in 3.0 mi East 4.6 mph - 0.00 in Snow Light Snow
8:35 PM 33.8 °F 28.6 °F 32.0 °F 93% 29.87 in 6.0 mi East 5.8 mph - 0.00 in Snow Light Snow
8:44 PM 33.8 °F 29.6 °F 32.0 °F 93% 29.87 in 9.0 mi East 4.6 mph - 0.00 in Snow Light Snow
8:53 PM 33.1 °F 30.0 °F 32.0 °F 96% 29.90 in 9.0 mi East 3.5 mph - 0.00 in Snow Light Snow
9:10 PM 33.8 °F 30.8 °F 32.0 °F 93% 29.87 in 7.0 mi East 3.5 mph - 0.00 in Snow Light Snow
9:24 PM 33.8 °F 29.6 °F 32.0 °F 93% 29.88 in 2.5 mi East 4.6 mph - 0.01 in Snow Light Snow
9:32 PM 33.8 °F 30.8 °F 32.0 °F 93% 29.88 in 3.0 mi East 3.5 mph - 0.01 in Snow Light Snow
9:43 PM 33.8 °F 29.6 °F 32.0 °F 93% 29.88 in 2.0 mi East 4.6 mph - 0.01 in Snow Light Snow
9:48 PM 32.0 °F 28.7 °F 32.0 °F 100% 29.88 in 2.0 mi East 3.5 mph - 0.01 in Snow Light Snow
9:53 PM 32.0 °F 27.5 °F 32.0 °F 100% 29.91 in 2.0 mi East 4.6 mph - 0.01 in Snow Light Snow
10:04 PM 32.0 °F 27.5 °F 30.2 °F 93% 29.88 in 2.0 mi East 4.6 mph - 0.00 in Snow Light Snow
10:20 PM 32.0 °F 27.5 °F 30.2 °F 93% 29.87 in 1.5 mi East 4.6 mph - 0.00 in Snow Light Snow
10:27 PM 32.0 °F 26.4 °F 32.0 °F 100% 29.87 in 1.0 mi East 5.8 mph - 0.00 in Snow Light Snow
10:34 PM 32.0 °F 26.4 °F 30.2 °F 93% 29.87 in 1.5 mi East 5.8 mph - 0.00 in Snow Light Snow
10:37 PM 32.0 °F 27.5 °F 30.2 °F 93% 29.87 in 2.0 mi East 4.6 mph - 0.00 in Snow Light Snow
10:46 PM 32.0 °F 26.4 °F 30.2 °F 93% 29.87 in 3.0 mi East 5.8 mph - 0.00 in Snow Light Snow
10:53 PM 32.0 °F 26.4 °F 30.9 °F 96% 29.90 in 1.5 mi East 5.8 mph - 0.00 in Snow Light Snow
10:59 PM 32.0 °F 26.4 °F 30.2 °F 93% 29.87 in 0.8 mi East 5.8 mph - 0.00 in Snow Light Snow
11:12 PM 32.0 °F 26.4 °F 30.2 °F 93% 29.87 in 1.5 mi East 5.8 mph - 0.00 in Snow Light Snow
11:19 PM 32.0 °F 26.4 °F 30.2 °F 93% 29.87 in 2.0 mi East 5.8 mph - 0.00 in Snow Light Snow
11:53 PM 32.0 °F 26.4 °F 30.9 °F 96% 29.90 in 1.8 mi East 5.8 mph - 0.01 in Snow Light Snow